Date String (YYYY-MM-DD hh:mm:ss) UTC,Instrument flags,absolute air pressure of the measurement (hPa),sample flow rate (lpm),inlet stack bypass flow (lpm),air temperature of the measurement (°C),ambient temperature measured by the external sensor (°C),aerosol sample conditioner tube jacket temperature (°C),OPC LED temperature (°C),internal box temperature (°C),relative humidity of the measurement (%),span deviation,mass concentration of particles derived from Lorenz-Mie calculation of OPC scattering (μg/m³),mass concentration of particles derived from Lorenz-Mie calculation of OPC scattering (μg/m³),mass concentration of particles derived from Lorenz-Mie calculation of OPC scattering (μg/m³)
DateTimeUTC,F1_M11,P_M11,Q1_M11,Q2_M11,T1_M11,T2_M11,T3_M11,T4_M11,T5_M11,U1_M11,ZSPAN_M11,X2_M11,X0_M11,X1_M11
2023-11-17 11:00:00,SystemResetWarning,0829.4,5.01,000.00,026.5,025.5,000.0,034.9,028.0,20.4,0000.0,0006.85,0013.65,0006.19
2023-11-17 11:01:00,SystemResetWarning,0829.4,5.00,000.00,026.5,025.5,000.0,034.9,028.0,20.4,0000.0,0006.87,0013.67,0006.24
2023-11-17 11:02:00,SystemResetWarning,0829.4,4.99,000.00,026.5,025.5,000.0,034.9,028.0,20.4,0000.0,0006.91,0014.18,0006.28
2023-11-17 11:03:00,SystemResetWarning,0829.3,4.99,000.00,026.5,025.5,000.0,034.9,028.0,20.4,0000.0,0006.98,0014.86,0006.34
2023-11-17 11:04:00,SystemResetWarning,0829.3,4.99,000.00,026.5,025.5,000.0,034.9,028.0,20.5,0000.0,0007.04,0014.02,0006.39
2023-11-17 11:05:00,SystemResetWarning,0829.3,5.00,000.00,026.5,025.5,000.0,034.9,028.0,20.4,0000.0,0007.12,0013.05,0006.47
2023-11-17 11:06:00,SystemResetWarning,0829.3,5.00,000.00,026.5,025.5,000.0,034.9,028.0,20.2,0000.0,0007.18,0012.92,0006.53
2023-11-17 11:07:00,SystemResetWarning,0829.4,5.01,000.00,026.5,025.5,000.0,034.9,028.0,20.2,0000.0,0007.25,0012.66,0006.58
2023-11-17 11:08:00,SystemResetWarning,0829.3,5.00,000.00,026.5,025.5,000.0,034.9,028.0,20.1,0000.0,0007.33,0012.89,0006.63
2023-11-17 11:09:00,SystemResetWarning,0829.3,5.01,000.00,026.5,025.5,000.0,034.9,028.0,19.9,0000.0,0007.36,0012.47,0006.67
2023-11-17 11:10:00,SystemResetWarning,0829.3,5.00,000.00,026.5,025.5,000.0,034.9,028.0,19.7,0000.0,0007.41,0012.90,0006.71
2023-11-17 11:11:00,SystemResetWarning,0829.4,5.01,000.00,026.5,025.5,000.0,034.9,027.9,19.7,0000.0,0007.43,0012.98,0006.74
2023-11-17 11:12:00,SystemResetWarning,0829.4,5.00,000.00,026.5,025.5,000.0,034.9,027.9,19.5,0000.0,0007.43,0013.40,0006.76
2023-11-17 11:13:00,SystemResetWarning,0829.4,5.00,000.00,026.5,025.4,000.0,034.9,027.9,19.4,0000.0,0007.49,0013.08,0006.80
2023-11-17 11:14:00,SystemResetWarning,0829.3,5.00,000.00,026.4,025.4,000.0,034.9,027.9,19.3,0000.0,0007.46,0012.52,0006.80
2023-11-17 11:15:00,SystemResetWarning,0829.3,5.01,000.00,026.4,025.5,000.0,034.9,027.9,19.2,0000.0,0007.39,0012.31,0006.76
2023-11-17 11:16:00,SystemResetWarning,0829.3,5.00,000.00,026.4,025.5,000.0,034.9,027.9,19.2,0000.0,0007.31,0012.16,0006.70
2023-11-17 11:17:00,SystemResetWarning,0829.3,4.99,000.00,026.4,025.5,000.0,034.9,027.9,19.1,0000.0,0007.22,0011.99,0006.65
2023-11-17 11:18:00,SystemResetWarning,0829.3,5.00,000.00,026.4,025.4,000.0,034.9,027.9,19.0,0000.0,0007.17,0011.95,0006.60
2023-11-17 11:19:00,SystemResetWarning,0829.3,5.00,000.00,026.5,025.4,000.0,034.9,027.9,18.9,0000.0,0007.09,0011.67,0006.54
2023-11-17 11:20:00,SystemResetWarning,0829.3,4.99,000.00,026.5,025.4,000.0,034.8,027.9,18.9,0000.0,0007.02,0011.76,0006.49
2023-11-17 11:21:00,SystemResetWarning,0829.2,5.00,000.00,026.5,025.4,000.0,034.9,028.0,18.9,0000.0,0006.98,0012.08,0006.45
2023-11-17 11:22:00,SystemResetWarning,0829.2,5.00,000.00,026.5,025.4,000.0,034.9,028.0,18.9,0000.0,0006.91,0011.66,0006.40
2023-11-17 11:23:00,SystemResetWarning,0829.3,5.00,000.00,026.4,025.4,000.0,034.8,027.9,19.0,0000.0,0006.92,0011.41,0006.38
2023-11-17 11:24:00,SystemResetWarning,0829.4,5.01,000.00,026.4,025.4,000.0,034.8,027.9,18.8,0000.0,0006.86,0011.12,0006.33
2023-11-17 11:25:00,SystemResetWarning,0829.4,5.00,000.00,026.4,025.4,000.0,034.8,027.8,18.6,0000.0,0006.86,0011.09,0006.31
2023-11-17 11:26:00,SystemResetWarning,0829.4,5.00,000.00,026.4,025.4,000.0,034.8,027.9,18.8,0000.0,0006.89,0010.88,0006.32
2023-11-17 11:27:00,SystemResetWarning,0829.6,5.00,000.00,026.4,025.4,000.0,034.8,027.8,18.7,0000.0,0006.95,0010.86,0006.33
2023-11-17 11:28:00,SystemResetWarning,0829.6,5.00,000.00,026.4,025.4,000.0,034.8,027.9,18.7,0000.0,0006.99,0010.96,0006.34
2023-11-17 11:29:00,SystemResetWarning,0829.6,5.00,000.00,026.4,025.4,000.0,034.8,027.9,18.8,0000.0,0007.02,0011.17,0006.35
2023-11-17 11:30:00,SystemResetWarning,0829.6,4.99,000.00,026.4,025.4,000.0,034.8,027.9,18.9,0000.0,0007.05,0011.48,0006.37
2023-11-17 11:31:00,SystemResetWarning,0829.7,4.99,000.00,026.4,025.4,000.0,034.8,027.9,18.9,0000.0,0007.12,0011.66,0006.38
2023-11-17 11:32:00,SystemResetWarning,0829.7,5.00,000.00,026.4,025.4,000.0,034.8,027.9,18.9,0000.0,0007.16,0011.22,0006.39
2023-11-17 11:33:00,SystemResetWarning,0829.7,5.01,000.00,026.4,025.4,000.0,034.8,027.9,18.9,0000.0,0007.21,0011.24,0006.42
2023-11-17 11:34:00,SystemResetWarning,0829.6,5.00,000.00,026.4,025.4,000.0,034.8,027.9,18.9,0000.0,0007.23,0011.33,0006.41
2023-11-17 11:35:00,SystemResetWarning,0829.4,5.00,000.00,026.4,025.4,000.0,034.8,027.9,18.9,0000.0,0007.22,0011.23,0006.42
2023-11-17 11:36:00,SystemResetWarning,0829.5,5.01,000.00,026.4,025.4,000.0,034.8,027.9,19.0,0000.0,0007.20,0011.08,0006.43
2023-11-17 11:37:00,SystemResetWarning,0829.5,5.01,000.00,026.4,025.4,000.0,034.8,027.9,19.0,0000.0,0007.18,0011.07,0006.43
2023-11-17 11:38:00,SystemResetWarning,0829.5,4.99,000.00,026.4,025.4,000.0,034.8,027.9,19.0,0000.0,0007.13,0011.89,0006.42
2023-11-17 11:39:00,SystemResetWarning,0829.5,5.00,000.00,026.4,025.4,000.0,034.8,027.9,19.0,0000.0,0007.14,0011.92,0006.43
2023-11-17 11:40:00,SystemResetWarning,0829.6,4.99,000.00,026.4,025.4,000.0,034.8,027.9,19.0,0000.3,0007.15,0011.81,0006.44
2023-11-17 11:41:00,SystemResetWarning,0829.6,5.00,000.00,026.4,025.4,000.0,034.8,027.9,18.9,0000.3,0007.17,0011.45,0006.45
2023-11-17 11:42:00,SystemResetWarning,0829.5,5.00,000.00,026.4,025.4,000.0,034.8,027.9,18.9,0000.1,0007.16,0011.44,0006.45
2023-11-17 11:43:00,SystemResetWarning,0829.5,5.00,000.00,026.4,025.4,000.0,034.8,027.8,19.0,0000.0,0007.10,0011.66,0006.41
2023-11-17 11:44:00,SystemResetWarning,0829.5,5.00,000.00,026.4,025.3,000.0,034.8,027.8,19.0,-000.1,0007.03,0011.58,0006.36
2023-11-17 11:45:00,SystemResetWarning,0829.5,5.00,000.00,026.4,025.3,000.0,034.8,027.9,18.9,0000.2,0006.98,0011.57,0006.31
2023-11-17 11:46:00,SystemResetWarning,0829.4,5.01,000.00,026.4,025.3,000.0,034.8,027.9,18.9,0000.0,0006.96,0011.71,0006.28
2023-11-17 11:47:00,SystemResetWarning,0829.5,5.00,000.00,026.4,025.3,000.0,034.8,027.9,18.8,0000.0,0006.95,0011.77,0006.23
2023-11-17 11:48:00,SystemResetWarning,0829.6,5.00,000.00,026.4,025.3,000.0,034.8,027.8,18.8,0000.0,0006.92,0011.96,0006.19
2023-11-17 11:49:00,SystemResetWarning,0829.6,5.00,000.00,026.4,025.3,000.0,034.8,027.8,18.8,0000.0,0006.91,0011.66,0006.16
2023-11-17 11:50:00,SystemResetWarning,0829.6,5.00,000.00,026.4,025.3,000.0,034.8,027.8,18.7,0000.0,0006.90,0011.50,0006.13
2023-11-17 11:51:00,SystemResetWarning,0829.5,4.99,000.00,026.4,025.3,000.0,034.8,027.8,18.7,0000.0,0006.84,0011.47,0006.09
2023-11-17 11:52:00,SystemResetWarning,0829.6,4.99,000.00,026.4,025.3,000.0,034.8,027.9,18.7,0000.0,0006.80,0011.43,0006.06
2023-11-17 11:53:00,SystemResetWarning,0829.6,4.99,000.00,026.4,025.3,000.0,034.8,027.8,18.7,0000.0,0006.72,0011.36,0006.02
2023-11-17 11:54:00,SystemResetWarning,0829.6,5.00,000.00,026.4,025.3,000.0,034.8,027.8,18.7,0000.0,0006.68,0011.53,0006.00
2023-11-17 11:55:00,SystemResetWarning,0829.7,5.00,000.00,026.4,025.3,000.0,034.8,027.8,18.7,0000.0,0006.69,0011.35,0006.01
2023-11-17 11:56:00,SystemResetWarning,0829.8,5.01,000.00,026.4,025.3,000.0,034.8,027.9,18.7,0000.0,0006.66,0011.41,0006.02
2023-11-17 11:57:00,SystemResetWarning,0829.8,5.00,000.00,026.3,025.3,000.0,034.7,027.8,18.6,0000.0,0006.64,0011.84,0006.02
2023-11-17 11:58:00,SystemResetWarning,0829.9,5.00,000.00,026.3,025.3,000.0,034.7,027.8,18.7,0000.0,0006.61,0011.75,0006.03
2023-11-17 11:59:00,SystemResetWarning,0830.0,5.00,000.00,026.4,025.3,000.0,034.7,027.8,18.7,0000.0,0006.61,0011.94,0006.04
